This demonstration page uses our WeatherBlox Daily Observations layout. Learn more.

Left ArrowRight Arrow

Hourly Observations for March 8, 2016

Temp ( °F °C ) Dew Point ( °F °C ) Humidity (%) Winds ( mph kmh ) Pressure ( in mb ) Visibility ( mi km ) Precip ( " mm )
12:53 am 00:53 Clear 44 6.7 41 5 89 89 ESE 3 6 30.06 1018 10 16 N/A
1:53 am 01:53 Clear 45 7.2 38 3.3 77 77 E 3 6 30.08 1019 10 16 N/A
2:53 am 02:53 Clear 43 6.1 39 3.9 86 86 SE 3 6 30.08 1019 10 16 N/A
3:53 am 03:53 Clear 43 6.1 40 4.4 89 89 N N/A 30.09 1019 10 16 N/A
4:53 am 04:53 Clear 50 10 38 3.3 63 63 ESE 6 9 30.09 1019 10 16 N/A
5:53 am 05:53 Cloudy 50 10 40 4.4 68 68 ESE 5 7 30.11 1020 10 16 N/A
6:53 am 06:53 Partly Cloudy 51 10.6 39 3.9 64 64 ESE 5 7 30.13 1020 10 16 N/A
7:53 am 07:53 Sunny 57 13.9 40 4.4 53 53 SSW 6 9 30.16 1021 10 16 N/A
8:53 am 08:53 Sunny 61 16.1 42 5.6 50 50 SSW 10 17 30.16 1021 10 16 N/A
9:53 am 09:53 Sunny 66 18.9 45 7.2 47 47 SSW 12 19 30.15 1021 10 16 N/A
10:53 am 10:53 Sunny 68 20 46 7.8 45 45 SW 13 20 30.15 1021 10 16 N/A
11:53 am 11:53 Sunny 70 21.1 48 8.9 46 46 SW 15 24 30.14 1021 10 16 N/A
12:53 pm 12:53 Sunny 71 21.7 47 8.3 42 42 S 12 19 30.11 1020 10 16 N/A
1:53 pm 13:53 Sunny 73 22.8 48 8.9 41 41 S 9 15 30.06 1018 10 16 N/A
2:53 pm 14:53 Sunny 75 23.9 46 7.8 36 36 SW 13 20 30.06 1018 10 16 N/A
3:53 pm 15:53 Sunny 74 23.3 44 6.7 34 34 SSW 14 22 30.04 1017 10 16 N/A
4:53 pm 16:53 Sunny 73 22.8 42 5.6 33 33 SSW 14 22 30.02 1017 10 16 N/A
5:53 pm 17:53 Sunny 73 22.8 42 5.6 33 33 VRB 7 11 30.02 1017 10 16 N/A
6:53 pm 18:53 Clear 69 20.6 42 5.6 38 38 SSW 6 9 30.02 1017 10 16 N/A
7:53 pm 19:53 Clear 66 18.9 41 5 40 40 S 3 6 30.01 1016 10 16 N/A
8:53 pm 20:53 Clear 66 18.9 40 4.4 39 39 VRB 5 7 30.02 1017 10 16 N/A
9:53 pm 21:53 Clear 63 17.2 42 5.6 47 47 S 3 6 30.03 1017 10 16 N/A
10:53 pm 22:53 Clear 53 11.7 41 5 64 64 SSE 3 6 30.04 1017 10 16 N/A
11:53 pm 23:53 Clear 53 11.7 44 6.7 72 72 E 3 6 30.04 1017 10 16 N/A

Powered by AerisWeather